一网星座-0602星 (ONEWEB-0602 )

导读 | 星芒AI

ONEWE-0602 是 OneWeb 卫星通信公司发射的低轨通信卫星之一,属于其全球宽带互联网星座计划的一部分。该卫星部署在约 1200 公里的近地轨道,旨在为全球偏远地区提供高速互联网服务。OneWeb 通过发射多批次卫星,构建覆盖全球的通信网络,支持航空、航海及地面用户。ONEWE-0602 的成功发射有助于完善其星座系统,提升网络覆盖与服务质量。

基本信息
目录编号:
54666
目录名称:
ONEWEB-0602
国际标识:
2022-166AA
轨道中心:
EARTH
卫星名称:
一网星座-0602星
卫星全名:
一网星座-0602星 (ONEWEB-0602 )
卫星状态:
在轨 (已飞行1103 天)
发射日期:
2022-12-08 UTC
国别 :
英国 (GB)
星等 :
--
轨道信息
数据来源 国际轨道数据 AOE轨道数据
星历时间 2025-12-15T03:54:21+0800
23小时前
查看轨道信息
2025-12-15T12:00:00+0800
15小时前
查看轨道信息
半长轴 7555.884km 7555.883km
偏心率 0.0002178 0.0002131
轨道倾角 87.922° 87.923°
近地点辐角 77.760° 81.387°
升交点赤经 280.777° 280.710°
平近点角 282.378° 82.683°
近地点 1176.103km 1176.137km
远地点 1179.395km 1179.359km
周期 108.940分钟 108.940分钟
每日圈数 13.218277 13.21828
详细信息
平衡模式:
三轴稳定
覆盖范围:
全球
运营商:
一网卫星公司
运营商所在国:
英国
制造商(研发单位):
一网卫星公司
制造商所在国:
英国
使用方式:
暂无
卫星简介
OneWeb卫星网络由648颗重约125公斤的微型卫星组成,运行在1200公里的轨道上。 每颗卫星都能够提供至少每秒8千兆位的吞吐量,以使用其高吞吐量的Ku频段有效载荷为家庭和移动平台提供互联网接入。该卫星仍在工作。
2D轨道图
3D轨道图
轨道高度分析图
轨道倾角分析图
轨道综合分析图
查看轨道综合分析图